Weather History for KHFD - June, 2013

Change the Weather History Date:

Tuesday, June 18, 2013

  Actual Average Record
Temperature  
Mean Temperature 71 °F -  
Max Temperature 82 °F 78 °F 94 °F (1957)
Min Temperature 61 °F 59 °F 40 °F (1958)
Cooling Degree Days 6    
Growing Degree Days 21 (Base 50)    
Moisture  
Dew Point 62 °F    
Average Humidity 86    
Maximum Humidity 97    
Minimum Humidity 54    
Precipitation  
Precipitation 0.85 in - - ()
Sea Level Pressure  
Sea Level Pressure 29.89 in    
Wind  
Wind Speed 4 mph (NNE)    
Max Wind Speed 22 mph    
Max Gust Speed 37 mph    
Visibility 9 miles    
Events Fog , Rain , Thunderstorm    
Averages and records for this station are not official NWS values.
T = Trace of Precipitation, MM = Missing Value Source: NWS Daily Summary

Daily Weather History Graph

Daily Weather History Graph

Search for Another Location

Airport or City:

Trip Planner

Search our weather history database for the weather conditions in past years. The results will help you decide how hot, cold, wet, or windy it might be!

Date:

Astronomy

Jun. 18, 2013 Rise Set
Actual Time 5:15 AM EDT 8:28 PM EDT
Civil Twilight 4:41 AM EDT 9:02 PM EDT
Nautical Twilight 3:57 AM EDT 9:46 PM EDT
Astronomical Twilight 3:04 AM EDT 10:39 PM EDT
Moon 3:06 PM EDT (6/18) 1:26 AM EDT (6/18)
Length of Visible Light 16h 21m
Length of Day
15h 12m
Waxing Gibbous, 70% of the Moon is Illuminated
Jun 18
Waxing Gibbous
Jun 23
Full
Jun 30
Last Quarter
Jul 8
New
Jul 15
First Quarter

Hourly Weather History & Observations

Time (EDT) Temp. Heat Index Dew Point Humidity Pressure Visibility Wind Dir Wind Speed Gust Speed Precip Events Conditions
12:53 AM 64.0 °F - 62.1 °F 93% 29.91 in 10.0 mi Calm Calm - N/A   Mostly Cloudy
1:53 AM 63.0 °F - 61.0 °F 93% 29.91 in 10.0 mi Calm Calm - N/A   Partly Cloudy
2:53 AM 63.0 °F - 61.0 °F 93% 29.91 in 10.0 mi SE 3.5 mph - N/A   Clear
3:53 AM 62.1 °F - 60.1 °F 93% 29.89 in 10.0 mi Calm Calm - N/A   Clear
4:53 AM 61.0 °F - 60.1 °F 97% 29.88 in 10.0 mi Calm Calm - N/A   Clear
5:53 AM 61.0 °F - 60.1 °F 97% 29.90 in 10.0 mi Calm Calm - N/A   Clear
6:53 AM 62.1 °F - 61.0 °F 96% 29.90 in 10.0 mi Calm Calm - 0.01 in   Clear
7:53 AM 64.9 °F - 62.1 °F 90% 29.92 in 10.0 mi Calm Calm - N/A   Clear
8:53 AM 70.0 °F - 63.0 °F 78% 29.92 in 10.0 mi Variable 3.5 mph - N/A   Clear
9:53 AM 73.9 °F - 62.1 °F 66% 29.92 in 10.0 mi Variable 4.6 mph - N/A   Clear
10:53 AM 77.0 °F - 64.0 °F 64% 29.90 in 10.0 mi Calm Calm - N/A   Clear
11:53 AM 79.0 °F - 63.0 °F 58% 29.88 in 10.0 mi NNW 3.5 mph - N/A   Clear
12:53 PM 80.1 °F 81.7 °F 64.0 °F 58% 29.86 in 10.0 mi Variable 4.6 mph - N/A   Clear
1:53 PM 81.0 °F 82.2 °F 63.0 °F 54% 29.83 in 10.0 mi SE 5.8 mph - N/A   Clear
2:53 PM 80.1 °F 81.5 °F 63.0 °F 56% 29.82 in 10.0 mi Calm Calm - N/A   Mostly Cloudy
3:13 PM 71.6 °F - 62.6 °F 73% 29.82 in 10.0 mi North 21.9 mph 36.8 mph N/A Thunderstorm Thunderstorm
3:28 PM 66.2 °F - 62.6 °F 88% 29.89 in 1.5 mi NNW 16.1 mph 31.1 mph 0.18 in Rain , Thunderstorm Heavy Thunderstorms and Rain
3:32 PM 64.4 °F - 62.6 °F 94% 29.89 in 0.5 mi Variable 5.8 mph 29.9 mph 0.41 in Fog , Rain , Thunderstorm Heavy Thunderstorms and Rain
3:48 PM 66.2 °F - 64.4 °F 94% 29.86 in 2.5 mi NNE 9.2 mph - 0.66 in Rain , Thunderstorm Light Thunderstorms and Rain
3:53 PM 66.0 °F - 63.0 °F 90% 29.87 in 10.0 mi NNE 9.2 mph - 0.66 in Rain , Thunderstorm Light Rain
4:22 PM 66.2 °F - 64.4 °F 94% 29.88 in 10.0 mi North 9.2 mph - 0.00 in   Overcast
4:30 PM 66.2 °F - 62.6 °F 88% 29.89 in 10.0 mi NNW 5.8 mph - 0.00 in Thunderstorm Thunderstorm
4:53 PM 66.0 °F - 63.0 °F 90% 29.90 in 10.0 mi North 6.9 mph - 0.02 in Rain , Thunderstorm Light Thunderstorms and Rain
5:09 PM 66.2 °F - 62.6 °F 88% 29.89 in 10.0 mi North 8.1 mph - 0.01 in Rain Light Rain
5:53 PM 66.0 °F - 64.0 °F 93% 29.87 in 10.0 mi NNE 10.4 mph - 0.01 in Rain Light Rain
6:14 PM 66.2 °F - 62.6 °F 88% 29.88 in 10.0 mi NE 9.2 mph - 0.01 in Rain Light Rain
6:53 PM 64.9 °F - 62.1 °F 90% 29.89 in 6.0 mi NE 5.8 mph - 0.07 in Rain Rain
7:53 PM 64.0 °F - 62.1 °F 93% 29.88 in 10.0 mi North 9.2 mph - 0.07 in Rain Light Rain
8:18 PM 64.4 °F - 60.8 °F 88% 29.89 in 10.0 mi North 8.1 mph - 0.00 in Rain Light Rain
8:42 PM 62.6 °F - 60.8 °F 94% 29.89 in 10.0 mi North 10.4 mph - 0.00 in   Overcast
8:53 PM 63.0 °F - 61.0 °F 93% 29.90 in 10.0 mi North 8.1 mph - 0.00 in   Overcast
9:26 PM 62.6 °F - 60.8 °F 94% 29.91 in 10.0 mi NNE 9.2 mph - N/A   Overcast
9:53 PM 63.0 °F - 61.0 °F 93% 29.91 in 10.0 mi NNE 8.1 mph - 0.00 in Rain Light Rain
10:34 PM 62.6 °F - 60.8 °F 94% 29.91 in 10.0 mi NNE 9.2 mph - 0.01 in   Overcast
10:53 PM 62.1 °F - 59.0 °F 90% 29.92 in 10.0 mi North 10.4 mph - 0.01 in   Overcast
11:53 PM 61.0 °F - 57.0 °F 87% 29.92 in 10.0 mi North 10.4 mph - N/A   Overcast